Tracking 19242 objects as of 15-Aug-2018
HD Live streaming from Space Station
objects crossing your sky now

ARABSAT 2B

Track ARABSAT 2B now!
ARABSAT 2B is classified as:


NORAD ID: 24652
Int'l Code: 1996-063A
Perigee: 36,034.0 km
Apogee: 36,039.1 km
Inclination: 4.5 °
Period: 1,448.5 minutes
Semi major axis: 42407 km
RCS: 3.8888 m2 (large)
Launch date: November 13, 1996
Source: Arab Satellite Communications Organization (AB)
Launch site: FRENCH GUIANA (FRGUI)

Second generation; radio and tv communications to Middle East.
aabbcc
Your satellite tracking list
Your tracking list is empty




NASA's NSSDC Master Catalog

Two Line Element Set (TLE):
1 24652U 96063A   18227.04368351 -.00000236  00000-0  00000+0 0  9994
2 24652   4.5484  68.5503 0000609 148.9067  59.8145  0.99411854 79989
Source of the keplerian elements: AFSPC